Weather History for Cairo, Egypt

Change the Weather History Date:

Wednesday, February 6, 2013

  Actual Average Record
Temperature  
Mean Temperature 60 °F -  
Max Temperature 63 °F 67 °F 77 °F (2012)
Min Temperature 57 °F 50 °F 42 °F (1997)
Degree Days  
Heating Degree Days 5    
Growing Degree Days 10 (Base 50)    
Moisture  
Dew Point 41 °F    
Average Humidity 48    
Maximum Humidity 63    
Minimum Humidity 25    
Precipitation  
Precipitation 0.00 in 0.01 in - ()
Sea Level Pressure  
Sea Level Pressure 29.91 in    
Wind  
Wind Speed 14 mph ()    
Max Wind Speed 25 mph    
Max Gust Speed -    
Visibility 4.4 miles    
Events      
Averages and records for this station are not official NWS values.
T = Trace of Precipitation, MM = Missing Value Source: Averaged Metar Reports

Daily Weather History Graph

Daily Weather History Graph

Search for Another Location

Airport:

Trip Planner

Search our weather history database for the weather conditions in past years. The results will help you decide how hot, cold, wet, or windy it might be!

Date:

Astronomy

Feb. 06, 2013 Rise Set
Actual Time 6:41 AM EET 5:35 PM EET
Civil Twilight 6:16 AM EET 6:00 PM EET
Nautical Twilight 5:48 AM EET 6:28 PM EET
Astronomical Twilight 5:20 AM EET 6:57 PM EET
Moon 2:57 AM EET (2/6) 1:40 PM EET (2/6)
Length of Visible Light 11h 43m
Length of Day
10h 54m
Waning Crescent, 20% of the Moon is Illuminated
Feb 6
Waning Crescent
Feb 10
New
Feb 17
First Quarter
Feb 25
Full
Mar 4
Last Quarter

Hourly Weather History & Observations

Time (EET) Temp. Dew Point Humidity Pressure Visibility Wind Dir Wind Speed Gust Speed Precip Events Conditions
12:00 AM 68.0 °F 33.8 °F 28% 29.80 in 3.7 mi WSW 10.4 mph - N/A   Unknown
12:30 AM 68.0 °F 33.8 °F 28% 29.80 in 3.7 mi WSW 10.4 mph - N/A   Unknown
1:00 AM 64.4 °F 33.8 °F 32% 29.80 in 3.7 mi WSW 11.5 mph - N/A   Unknown
1:30 AM 64.4 °F 33.8 °F 32% 29.83 in 3.7 mi WSW 11.5 mph - N/A   Unknown
2:00 AM 63 °F 36 °F 25% 29.83 in 6 mi WSW 9.2 mph - -  
2:00 AM 62.6 °F 35.6 °F 37% 29.83 in - WSW 9.2 mph - N/A   Clear
2:30 AM 62.6 °F 35.6 °F 37% 29.83 in - WSW 9.2 mph - N/A   Clear
3:00 AM 62.6 °F 42.8 °F 48% 29.83 in - WSW 16.1 mph - N/A   Clear
3:30 AM 60.8 °F 46.4 °F 59% 29.83 in - WSW 20.7 mph - N/A   Clear
4:00 AM 60.8 °F 44.6 °F 55% 29.83 in - WSW 17.3 mph - N/A   Clear
4:30 AM 59.0 °F 44.6 °F 59% 29.86 in - WSW 16.1 mph - N/A   Clear
5:00 AM 59.0 °F 44.6 °F 59% 29.86 in 3.7 mi WSW 15.0 mph - N/A   Scattered Clouds
5:30 AM 59.0 °F 42.8 °F 55% 29.86 in 3.7 mi WSW 17.3 mph - N/A   Scattered Clouds
6:00 AM 57.2 °F 42.8 °F 59% 29.89 in 6.2 mi SW 18.4 mph - N/A   Partly Cloudy
6:30 AM 57.2 °F 42.8 °F 59% 29.89 in 6.2 mi SW 16.1 mph - N/A   Scattered Clouds
7:00 AM 57.2 °F 44.6 °F 63% 29.89 in 6.2 mi SW 13.8 mph - N/A   Mostly Cloudy
7:30 AM 57.2 °F 44.6 °F 63% 29.92 in 6.2 mi SW 17.3 mph - N/A   Mostly Cloudy
8:00 AM 57 °F 44 °F 51% 29.93 in 4 mi SSW 19.6 mph - -   Blowing Sand
8:00 AM 57.2 °F 44.6 °F 63% 29.92 in 3.7 mi SSW 19.6 mph - N/A   Mostly Cloudy
8:30 AM 57.2 °F 44.6 °F 63% 29.92 in 2.5 mi SSW 19.6 mph - N/A   Sand
9:00 AM 57.2 °F 42.8 °F 59% 29.95 in 2.5 mi SSW 19.6 mph - N/A   Sand
9:30 AM 57.2 °F 41.0 °F 55% 29.95 in 2.5 mi SW 18.4 mph - N/A   Sand
10:00 AM 59.0 °F 41.0 °F 51% 29.95 in 2.5 mi SW 19.6 mph - N/A   Sand
10:30 AM 59.0 °F 41.0 °F 51% 29.92 in 2.5 mi SW 21.9 mph - N/A   Sand
11:00 AM 60.8 °F 41.0 °F 48% 29.92 in 2.5 mi SW 21.9 mph - N/A   Sand
11:30 AM 60.8 °F 41.0 °F 48% 29.92 in 2.5 mi SW 23.0 mph - N/A   Sand
12:00 PM 60.8 °F 41.0 °F 48% 29.92 in 2.5 mi SW 23.0 mph - N/A   Sand
12:30 PM 62.6 °F 39.2 °F 42% 29.92 in 2.5 mi SW 23.0 mph - N/A   Sand
1:00 PM 62.6 °F 39.2 °F 42% 29.89 in 3.7 mi SSW 21.9 mph - N/A   Scattered Clouds
1:30 PM 62.6 °F 39.2 °F 42% 29.89 in 3.7 mi SSW 24.2 mph - N/A   Scattered Clouds
2:00 PM 63 °F 40 °F 30% 29.91 in 4 mi SSW 24.2 mph - -   Blowing Sand
2:00 PM 62.6 °F 39.2 °F 42% 29.89 in 3.7 mi SSW 24.2 mph - N/A   Mostly Cloudy
2:30 PM 64.4 °F 41.0 °F 42% 29.89 in 3.7 mi SSW 25.3 mph - N/A   Mostly Cloudy
3:00 PM 62.6 °F 41.0 °F 45% 29.89 in 3.7 mi SSW 25.3 mph - N/A   Mostly Cloudy
3:30 PM 62.6 °F 41.0 °F 45% 29.92 in 3.7 mi SSW 25.3 mph - N/A   Mostly Cloudy
4:00 PM 62.6 °F 41.0 °F 45% 29.92 in 3.7 mi SSW 18.4 mph - N/A   Mostly Cloudy
4:30 PM 62.6 °F 41.0 °F 45% 29.92 in 3.7 mi SSW 19.6 mph - N/A   Mostly Cloudy
5:00 PM 62.6 °F 41.0 °F 45% 29.92 in 3.7 mi SSW 19.6 mph - N/A   Mostly Cloudy
5:30 PM 62.6 °F 41.0 °F 45% 29.95 in 3.7 mi SW 16.1 mph - N/A   Mostly Cloudy
6:00 PM 62.6 °F 39.2 °F 42% 29.95 in 3.7 mi SW 18.4 mph - N/A   Mostly Cloudy
6:30 PM 62.6 °F 41.0 °F 45% 29.95 in 6.2 mi SW 11.5 mph - N/A   Scattered Clouds
7:00 PM 62.6 °F 41.0 °F 45% 29.95 in 6.2 mi SW 10.4 mph - N/A   Scattered Clouds
7:30 PM 62.6 °F 41.0 °F 45% 29.98 in 6.2 mi SSW 9.2 mph - N/A   Scattered Clouds
8:00 PM 61 °F 41 °F 37% 29.99 in 6 mi South 10.4 mph - -   Partly Cloudy
8:00 PM 60.8 °F 41.0 °F 48% 29.98 in 6.2 mi South 10.4 mph - N/A   Scattered Clouds
8:30 PM 60.8 °F 42.8 °F 52% 29.98 in 6.2 mi South 10.4 mph - N/A   Scattered Clouds
9:00 PM 60.8 °F 42.8 °F 52% 30.01 in 6.2 mi South 12.7 mph - N/A   Scattered Clouds
9:30 PM 60.8 °F 42.8 °F 52% 30.01 in 6.2 mi SSW 13.8 mph - N/A   Scattered Clouds
10:00 PM 60.8 °F 42.8 °F 52% 30.01 in 6.2 mi SW 11.5 mph - N/A   Scattered Clouds
10:30 PM 60.8 °F 44.6 °F 55% 30.04 in 6.2 mi SW 9.2 mph - N/A   Scattered Clouds
11:00 PM 59.0 °F 46.4 °F 63% 30.04 in 6.2 mi SW 9.2 mph - N/A   Scattered Clouds
11:30 PM 59.0 °F 46.4 °F 63% 30.04 in 6.2 mi WSW 9.2 mph - N/A   Scattered Clouds